Regional Weather Roundup
Issued by NWS

Home | Current Version | Previous Version | Text Only | Print | Product List | Glossary Off
Versions: 1 2 3 4 5 6 7 8 9 10 11 12 13 14 15 16 17 18 19 20 21 22 23 24 25 26 27 28 29 30 31 32 33 34 35 36 37 38 39 40 41 42 43 44 45 46 47 48 49 50

000
ASUS43 KOAX 040110
RWRNE

WEATHER ROUNDUP FOR NEBRASKA
NATIONAL WEATHER SERVICE OMAHA NE
800 PM CDT FRI JUL 03 2015

NOTES: SATELLITE DATA IS BEING USED TO AUGMENT CLOUD COVER ABOVE
       12000 FEET.
       "FAIR" INDICATES FEW OR NO CLOUDS BELOW 12,000 FEET WITH NO
       SIGNIFICANT WEATHER AND/OR OBSTRUCTIONS TO VISIBILITY.

  * THESE STATIONS DO NOT REPORT WEATHER SUCH AS RAIN...SNOW OR FOG.

NEZ001>004-019>022-054>056-040200-
NEBRASKA PANHANDLE

CITY           SKY/WX    TMP DP  RH WIND       PRES   REMARKS
SCOTTSBLUFF    SUNNY     82  56  40 SE10      29.99S
ALLIANCE       SUNNY     77  58  51 E9        30.00F
CHADRON        SUNNY     80  59  48 E7        29.95F
KIMBALL          N/A    N/A N/A N/A MISG        N/A
SIDNEY         SUNNY     79  56  45 E13       30.04S
$$

NEZ057>060-069>072-079>082-040200-
SOUTHWEST NEBRASKA

CITY           SKY/WX    TMP DP  RH WIND       PRES   REMARKS
NORTH PLATTE   SUNNY     80  62  54 SE7       29.98S
IMPERIAL       SUNNY     82  57  42 E9        29.99S
LEXINGTON      SUNNY     79  64  59 SE9       29.98R
MCCOOK         SUNNY     80  62  54 E13       29.97S
OGALLALA       SUNNY     81  57  44 E7        29.99S
$$

NEZ005>010-023>029-035>040-094-040200-
NORTH CENTRAL NEBRASKA

CITY           SKY/WX    TMP DP  RH WIND       PRES   REMARKS
VALENTINE      SUNNY     79  60  52 E6        29.96F
AINSWORTH      SUNNY     78  60  54 E3        29.97F
BROKEN BOW     SUNNY     79  62  56 SE6       29.98S
O`NEILL        SUNNY     76  66  70 E5        29.98S
ORD            SUNNY     79  60  52 S7        29.95S
THEDFORD       SUNNY     80  61  52 E3        29.99S HAZE
$$

NEZ041-046>049-061>064-073>077-083>087-040200-
SOUTH CENTRAL NEBRASKA

CITY           SKY/WX    TMP DP  RH WIND       PRES   REMARKS
GRAND ISLAND   SUNNY     75  62  64 E6        29.98F
AURORA         SUNNY     74  65  73 E3        29.98S
HASTINGS       SUNNY     75  62  64 E8        29.98S
HEBRON         CLEAR     75  62  62 NE5       29.97S
HOLDREGE       SUNNY     74  61  62 E7        29.98F
KEARNEY *      SUNNY     75  61  60 E7        29.98F
YORK           SUNNY     73  64  73 CALM      29.98S
$$

NEZ011>018-030>034-042>045-040200-
NORTHEAST NEBRASKA

CITY           SKY/WX    TMP DP  RH WIND       PRES   REMARKS
NORFOLK        SUNNY     74  64  71 SE3       29.97S
ALBION         SUNNY     74  63  69 SE7       29.98S
BLAIR          CLEAR     74  58  57 CALM      29.96S
COLUMBUS *     SUNNY     73  63  68 CALM      29.98F
FREMONT        CLEAR     77  57  51 CALM      29.97S
TEKAMAH        CLEAR     76  57  51 E5        29.95S
WAYNE          SUNNY     74  68  79 CALM      29.96F
$$

NEZ050>053-065>068-078-088>093-040200-
SOUTHEAST NEBRASKA

CITY           SKY/WX    TMP DP  RH WIND       PRES   REMARKS
LINCOLN        CLEAR     75  63  66 NE6       29.97S
OMAHA EPPLEY   PTCLDY    77  52  41 CALM      29.96S
BEATRICE       CLEAR     75  61  60 NE5       29.97R
FALLS CITY     CLEAR     76  61  59 CALM      29.95R
NEBRASKA CITY  CLEAR     72  55  53 N3        29.97S
PLATTSMOUTH    CLEAR     74  52  46 CALM      29.97S
$$

NEZ044-045-051>053-067-040200-
OMAHA AREA

CITY           SKY/WX    TMP DP  RH WIND       PRES   REMARKS
OMAHA EPPLEY   PTCLDY    77  52  41 CALM      29.96S
BLAIR          CLEAR     74  58  57 CALM      29.96S
FREMONT        CLEAR     77  57  51 CALM      29.97S
MILLARD        CLEAR     75  57  53 SE5       29.96R
OFFUTT AFB     CLEAR     73  61  68 E3        29.95S
PLATTSMOUTH    CLEAR     74  52  46 CALM      29.97S
WAHOO          FAIR      75  62  62 CALM      29.96S
$$


USA.gov is the U.S. government's official web portal to all federal, state and local government web resources and services.